[[{"header":{"parameterUnit":"m.s-1","parameterCategory":1,"la1":30.2991,"la2":30.254,"lo1":-89.0895,"lo2":-89.0444,"dy":0.0017,"dx":0.0017,"nx":28,"ny":28,"refTime":"2023-10-26T21:00:00:Z","depth":0,"parameterNumber":2,"parameterNumberName":"U-component_of_WINDS"},"data":[0,0,0,0,0,0,0,0,0,0,0,0,0,0,0,0,0,0,0,0,0,0,0,0,0,0,0,0,0,0,0,0,0,0,0,0,0,0,0,0,0,0,0,0,0,0,0,0,0,0,0,0,0,0,0,0,0,0,-2.8933,-2.8933,0,-2.8978,-2.8978,-2.8979,-2.8915,-2.8912,-2.891,-2.8908,-2.8955,-2.8958,-2.8961,0,0,0,0,0,0,0,0,0,0,0,0,0,-2.8793,-2.8796,-2.8933,-2.8933,-2.8934,-2.8978,-2.8978,-2.8979,-2.8915,-2.8912,-2.8909,-2.8907,-2.8954,-2.8958,-2.8962,0,0,0,0,0,0,0,0,0,0,0,0,0,-2.8847,-2.8797,-2.8932,-2.8907,-2.8905,-2.8978,-2.8978,-2.8979,-2.8916,-2.8912,-2.8909,-2.8906,-2.8952,-2.8957,-2.8962,-2.9062,0,0,-2.8978,-2.898,0,0,0,0,0,0,0,0,-2.8844,-2.8853,-2.891,-2.8909,-2.8907,-2.8937,-2.8946,-2.9007,-2.8916,-2.8912,-2.8908,-2.8904,-2.8952,-2.8957,-2.8973,-2.9064,-2.9066,-2.8978,-2.8981,-2.8984,-2.8985,0,0,0,0,0,0,0,-2.8841,-2.885,-2.895,-2.8911,-2.8909,-2.8894,-2.8898,-2.8957,-2.895,-2.8912,-2.8907,-2.8913,-2.895,-2.8968,-2.8973,-2.9067,-2.8978,-2.8983,-2.8986,-2.8988,-2.9244,-2.9247,0,0,0,0,0,0,-2.884,-2.8848,-2.8949,-2.8952,-2.8867,-2.8899,-2.8904,-2.8931,-2.8949,-2.8949,-2.8916,-2.891,-2.8961,-2.8967,-2.8975,-2.9093,-2.8983,-2.8988,-2.8991,-2.924,-2.9244,-2.9248,0,0,0,0,0,0,-2.8837,-2.8849,-2.8947,-2.8899,-2.891,-2.8905,-2.8936,-2.8934,-2.8951,-2.8953,-2.8951,-2.8936,-2.8959,-2.8968,-2.9041,-2.9093,-2.899,-2.8995,-2.9235,-2.9241,-2.9246,-2.933,0,0,0,0,0,0,-2.8833,-2.8849,-2.8886,-2.89,-2.8913,-2.9012,-2.894,-2.8937,-2.896,-2.8952,-2.8971,-2.897,-2.8957,-2.9034,-2.9046,-2.9099,-2.8999,-2.9231,-2.9238,-2.9245,-2.9322,-2.9337,-2.935,0,0,0,0,0,-2.8829,-2.8907,-2.8888,-2.8901,-2.8959,-2.9015,-2.9023,-2.9005,-2.8964,-2.9002,-2.9004,-2.897,-2.9086,-2.9042,-2.9055,-2.911,-2.9227,-2.9236,-2.9244,-2.9316,-2.9334,-2.935,0,0,0,0,0,0,-2.89,-2.8909,-2.8887,-2.8973,-2.8994,-2.9004,-2.9051,-2.9025,-2.9058,-2.905,-2.9027,-2.9032,-2.911,-2.9118,-2.9068,-2.9208,-2.915,-2.9162,-2.92,-2.9218,-2.9232,-2.9228,-2.9003,0,0,0,0,0,-2.8925,-2.897,-2.8976,-2.9051,-2.9062,-2.9055,-2.9079,-2.9064,-2.9085,-2.9093,-2.91,-2.9122,-2.9163,-2.9191,-2.9229,-2.9324,-2.9327,-2.9368,-2.9382,-2.9394,-2.9404,-2.9455,-2.9473,-2.9276,-2.9276,-2.9276,0,0,-2.8979,-2.8989,-2.9019,-2.9065,-2.908,-2.9127,-2.9063,-2.9115,-2.915,-2.9101,-2.9171,-2.9177,-2.92,-2.9285,-2.9322,-2.9293,-2.9459,-2.9405,-2.9414,-2.9417,-2.9466,-2.9484,-2.9501,-2.9282,-2.9281,-2.928,0,0,-2.91,-2.9112,-2.9176,-2.9192,-2.9215,-2.921,-2.9226,-2.9241,-2.9243,-2.9313,-2.9277,-2.9319,-2.9391,-2.9409,-2.9428,-2.9559,-2.9529,-2.9572,-2.9645,-2.9696,-2.9711,-2.9725,-2.9772,-2.9789,-2.9582,-2.9582,-2.9582,0,-2.9163,-2.9232,-2.9213,-2.9268,-2.929,-2.9248,-2.9314,-2.933,-2.9365,-2.9381,-2.9349,-2.9439,-2.9451,-2.954,-2.9572,-2.9589,-2.9606,-2.9569,-2.9711,-2.9724,-2.9736,-2.9781,-2.9798,-2.9587,-2.9587,-2.9586,-2.9586,0,-2.9309,-2.9358,-2.9407,-2.9441,-2.9469,-2.9529,-2.952,-2.9551,-2.9534,-2.9533,-2.9605,-2.9619,-2.966,-2.968,-2.9664,-2.9767,-2.9749,-2.9714,-2.9655,-2.9761,-2.9802,-2.9819,-2.9595,-2.9593,-2.9591,-2.959,0,0,-2.9473,-2.9498,-2.9516,-2.9532,-2.9555,-2.9593,-2.9652,-2.9692,-2.9719,-2.9745,-2.9794,-2.9857,-2.9826,-2.9847,-2.9833,-2.9878,-2.9981,-2.9837,-2.9838,-2.9863,-3.0096,-3.0121,-3.0141,-2.9962,-2.9965,-2.9968,-3.0094,0,-2.9594,-2.9695,-2.968,-2.9778,-2.9824,-2.9786,-2.9838,-2.9859,-2.986,-2.9899,-2.9901,-2.9946,-2.9901,-2.9914,-2.9956,-2.9959,-3.0027,-2.995,-3.0008,-3.001,-3.0002,-3.0162,-3.0189,-3.0307,-3.011,-3.0113,-3.0114,0,-2.9747,-2.9779,-2.9882,-2.9899,-2.9918,-2.9964,-3.0,-3.0039,-3.0062,-3.006,-3.0085,-3.0064,-3.0124,-3.0066,-3.0149,-3.0097,-3.012,-3.0126,-3.013,-3.0134,-3.0068,-3.017,-3.0344,-3.0361,-3.014,-3.0138,-3.0136,0,-2.9856,-2.9925,-2.9995,-3.001,-3.0033,-3.0066,-3.0077,-3.0097,-3.0123,-3.0155,-3.0172,-3.0211,-3.0232,-3.0264,-3.0254,-3.0213,-3.034,-3.028,-3.034,-3.0341,-3.0367,-3.0365,-3.0547,-3.0384,-3.0384,-3.0384,-3.0383,0,-2.9992,-3.0056,-3.0045,-3.0088,-3.0159,-3.0143,-3.0214,-3.0221,-3.0239,-3.0284,-3.0255,-3.0297,-3.0283,-3.0325,-3.0318,-3.0388,-3.0399,-3.0399,-3.0396,-3.0401,-3.0401,-3.0415,-3.0406,-3.0388,-3.0387,-3.0386,-3.0386,0,-3.0124,-3.012,-3.0194,-3.021,-3.0216,-3.0267,-3.0281,-3.0322,-3.0323,-3.038,-3.0392,-3.0392,-3.0441,-3.0435,-3.0489,-3.0485,-3.0572,-3.056,-3.0564,-3.0561,-3.0621,-3.0615,-3.0816,-3.0842,-3.0664,-3.0666,-3.0667,0,-3.021,-3.0259,-3.028,-3.0308,-3.0321,-3.0366,-3.0393,-3.038,-3.0408,-3.044,-3.0478,-3.0523,-3.0559,-3.0639,-3.0644,-3.0686,-3.0674,-3.0742,-3.068,-3.0683,-3.0674,-3.0671,-3.0676,-3.0753,-3.0755,-3.0757,-3.0758,0,-3.0363,-3.0359,-3.0397,-3.0436,-3.0468,-3.0498,-3.0525,-3.055,-3.054,-3.0574,-3.0623,-3.0651,-3.0707,-3.0753,-3.0793,-3.0805,-3.0781,-3.0778,-3.0794,-3.0799,-3.0799,-3.0799,-3.0596,-3.0773,-3.0772,-3.0771,-3.077,-3.0769,-3.0474,-3.0516,-3.0538,-3.0582,-3.0602,-3.0628,-3.0668,-3.0674,-3.0714,-3.0758,-3.0749,-3.0805,-3.0829,-3.088,-3.0897,-3.0941,-3.0916,-3.0939,-3.0945,-3.095,-3.0957,-3.0793,-3.0948,-3.0948,-3.0947,-3.0947,-3.0947,0,-3.0624,-3.0637,-3.0679,-3.0718,-3.0754,-3.0728,-3.0757,-3.0789,-3.0838,-3.0863,-3.0899,-3.0957,-3.1002,-3.1012,-3.1056,-3.109,-3.1079,-3.1101,-3.1098,-3.1101,-3.0977,-3.0959,-3.1109,-3.1109,-3.1109,-3.1109,-3.1109,-3.1109,-3.0707,-3.0776,-3.0775,-3.0854,-3.0867,-3.0921,-3.094,-3.0965,-3.0985,-3.105,-3.1088,-3.1094,-3.1114,-3.1159,-3.12,-3.1202,-3.1219,-3.1245,-3.1243,-3.1126,-3.111,-3.1094,-3.1077,-3.125,-3.125,-3.1363,-3.1365,-3.1365]},{"header":{"parameterUnit":"m.s-1","parameterCategory":1,"la1":30.2991,"la2":30.254,"lo1":-89.0895,"lo2":-89.0444,"dy":0.0017,"dx":0.0017,"nx":28,"ny":28,"refTime":"2023-10-26T21:00:00:Z","depth":0,"parameterNumber":3,"parameterNumberName":"V-component_of_WINDS"},"data":[0,0,0,0,0,0,0,0,0,0,0,0,0,0,0,0,0,0,0,0,0,0,0,0,0,0,0,0,0,0,0,0,0,0,0,0,0,0,0,0,0,0,0,0,0,0,0,0,0,0,0,0,0,0,0,0,0,0,0.7599,0.7599,0,0.7607,0.7607,0.7607,0.755,0.7549,0.7547,0.7546,0.7554,0.7556,0.7557,0,0,0,0,0,0,0,0,0,0,0,0,0,0.7538,0.754,0.7599,0.7599,0.7599,0.7607,0.7607,0.7607,0.7551,0.7549,0.7547,0.7545,0.7554,0.7556,0.7558,0,0,0,0,0,0,0,0,0,0,0,0,0,0.7557,0.754,0.7599,0.7572,0.757,0.7607,0.7607,0.7607,0.7551,0.7549,0.7546,0.7544,0.7553,0.7555,0.7558,0.7621,0,0,0.7566,0.7567,0,0,0,0,0,0,0,0,0.7556,0.756,0.7576,0.7574,0.7571,0.7575,0.7589,0.7612,0.7552,0.7558,0.7546,0.7543,0.7563,0.7565,0.7571,0.7622,0.7622,0.7566,0.7568,0.7569,0.7569,0,0,0,0,0,0,0,0.7555,0.7559,0.7602,0.7576,0.7574,0.7561,0.7561,0.7593,0.7574,0.7557,0.7553,0.7555,0.7561,0.7569,0.7571,0.7622,0.7566,0.7568,0.757,0.7571,0.7729,0.7731,0,0,0,0,0,0,0.7557,0.7558,0.7602,0.7602,0.7558,0.7564,0.7564,0.7576,0.7573,0.7571,0.7557,0.7552,0.7566,0.7568,0.7571,0.7648,0.7569,0.7571,0.7572,0.7726,0.7729,0.7732,0,0,0,0,0,0,0.7556,0.7562,0.7602,0.7579,0.7583,0.7567,0.7582,0.7578,0.7585,0.7573,0.757,0.7568,0.7564,0.7568,0.761,0.7647,0.7572,0.7574,0.7723,0.7727,0.7731,0.7799,0,0,0,0,0,0,0.7555,0.7562,0.7585,0.758,0.7585,0.764,0.7584,0.758,0.759,0.7584,0.7583,0.758,0.7562,0.7607,0.7613,0.7649,0.7576,0.772,0.7725,0.773,0.7794,0.7805,0.7815,0,0,0,0,0,0.7553,0.7603,0.7586,0.7592,0.7613,0.7642,0.7644,0.7623,0.7593,0.7617,0.761,0.758,0.7642,0.7611,0.7618,0.7656,0.7717,0.7723,0.7729,0.7789,0.7803,0.7815,0,0,0,0,0,0,0.7611,0.7602,0.7583,0.7633,0.7639,0.7632,0.7661,0.7638,0.7652,0.7646,0.7619,0.7619,0.7667,0.7665,0.7631,0.7719,0.7675,0.7682,0.7718,0.7731,0.7742,0.7741,0.7579,0,0,0,0,0,0.763,0.7654,0.7644,0.7689,0.7693,0.7677,0.7689,0.7672,0.7677,0.7679,0.7675,0.7681,0.7702,0.7716,0.7735,0.7794,0.7794,0.7823,0.7834,0.7842,0.7849,0.7883,0.7897,0.7752,0.7752,0.7752,0,0,0.7669,0.7667,0.7683,0.7701,0.7704,0.773,0.7679,0.7708,0.7728,0.7683,0.7724,0.7721,0.7727,0.7779,0.7801,0.7779,0.789,0.785,0.7857,0.7859,0.7891,0.7905,0.7917,0.7756,0.7755,0.7755,0,0,0.7753,0.7753,0.7792,0.7797,0.7802,0.7791,0.7801,0.7799,0.7795,0.7836,0.7804,0.7827,0.7863,0.7869,0.7877,0.7969,0.7943,0.7975,0.8031,0.8065,0.8076,0.8086,0.8121,0.8133,0.7982,0.7982,0.7983,0,0.7801,0.7839,0.7815,0.7848,0.7858,0.782,0.786,0.7866,0.7876,0.7885,0.786,0.7907,0.7907,0.7962,0.7984,0.7991,0.8003,0.7975,0.8076,0.8086,0.8095,0.8128,0.8141,0.7986,0.7986,0.7986,0.7985,0,0.7898,0.7925,0.7956,0.7969,0.7983,0.8019,0.8003,0.802,0.8003,0.7996,0.8039,0.8039,0.8058,0.807,0.8053,0.8123,0.8109,0.8081,0.8036,0.8113,0.8144,0.8156,0.7992,0.7991,0.799,0.7989,0,0,0.8017,0.802,0.8031,0.8038,0.8043,0.8063,0.8099,0.8119,0.8135,0.8145,0.8175,0.8209,0.8183,0.8192,0.8176,0.8206,0.8281,0.8174,0.8174,0.8195,0.8361,0.8384,0.8398,0.8264,0.8267,0.8268,0.8361,0,0.8101,0.8162,0.8144,0.8206,0.8232,0.8198,0.823,0.8237,0.8232,0.8255,0.8249,0.8274,0.8237,0.8243,0.8271,0.8266,0.8314,0.8259,0.8294,0.8296,0.8295,0.8414,0.8437,0.8524,0.8373,0.8375,0.8376,0,0.8207,0.8222,0.8287,0.829,0.8301,0.8329,0.8348,0.8369,0.8377,0.8372,0.8384,0.8363,0.84,0.8356,0.8408,0.8371,0.8385,0.8385,0.8388,0.8391,0.8341,0.8421,0.8551,0.8565,0.8394,0.8393,0.8392,0,0.829,0.8327,0.8371,0.8378,0.8382,0.8404,0.8407,0.8413,0.8427,0.8443,0.8452,0.8473,0.8484,0.8501,0.8487,0.8455,0.8543,0.8496,0.8541,0.8541,0.856,0.856,0.8696,0.8568,0.8567,0.8567,0.8567,0,0.8386,0.8427,0.8409,0.8436,0.8483,0.8463,0.851,0.8509,0.8515,0.8543,0.8515,0.8542,0.8521,0.8547,0.8536,0.8582,0.8587,0.8585,0.8582,0.8588,0.8589,0.8597,0.8591,0.8571,0.857,0.8569,0.8569,0,0.8486,0.8475,0.8522,0.8523,0.8525,0.8559,0.8561,0.8587,0.8581,0.8617,0.8625,0.8616,0.8645,0.8633,0.8663,0.8656,0.8716,0.8704,0.8713,0.8711,0.8757,0.8753,0.8904,0.8924,0.8782,0.8783,0.8784,0,0.8548,0.858,0.8585,0.8603,0.8608,0.8635,0.865,0.8632,0.8649,0.8664,0.8689,0.8716,0.8736,0.8785,0.8782,0.8806,0.8795,0.8846,0.8798,0.8805,0.8798,0.8797,0.8801,0.8856,0.8858,0.8859,0.886,0,0.8661,0.8655,0.8677,0.87,0.8719,0.8735,0.8749,0.8764,0.8748,0.8769,0.8799,0.8815,0.8848,0.8875,0.8898,0.8901,0.8879,0.8876,0.8887,0.8895,0.89,0.89,0.8741,0.8872,0.8871,0.887,0.8869,0.8869,0.8745,0.8772,0.8782,0.8809,0.8818,0.8833,0.8859,0.8857,0.8882,0.8907,0.8896,0.8931,0.8942,0.897,0.8978,0.9006,0.8986,0.9003,0.9007,0.9012,0.9019,0.8895,0.901,0.9009,0.9009,0.9009,0.9009,0,0.8857,0.8863,0.8888,0.8909,0.8932,0.8909,0.8925,0.8945,0.8977,0.8989,0.9011,0.9047,0.9075,0.9075,0.9101,0.9125,0.9115,0.9132,0.9131,0.9133,0.9034,0.9022,0.914,0.914,0.914,0.914,0.914,0.914,0.8918,0.8965,0.8961,0.9013,0.9018,0.9053,0.9064,0.9079,0.9089,0.9131,0.9154,0.9154,0.9163,0.919,0.9216,0.9215,0.9227,0.9248,0.9244,0.9152,0.9139,0.9127,0.9115,0.9251,0.9251,0.934,0.9341,0.9342]}]]